FW2445 Weather Reports


time (UTC)temp
F
wind
direction
speed
knots
gust
knots
rain 1hr
in
rain 24hr
in
rain mn
in
humidity
%
barometer
mb
20260510033056 68 26 0.0 0.0 0.00 0.00 0.00 46 1010.6
20260510031539 68 26 0.0 0.0 0.00 0.00 0.00 49 1010.5
20260510030015 69 26 0.0 0.0 0.00 0.00 0.00 50 1010.3
20260510024509 69 26 0.0 0.0 0.00 0.00 0.00 52 1010.0
20260510023049 70 26 0.0 0.0 0.00 0.00 0.00 52 1009.7
20260510021545 70 26 0.0 0.0 0.00 0.00 0.00 55 1009.6
20260510020041 71 26 0.0 0.0 0.00 0.00 0.00 58 1009.3
20260510014540 71 26 0.0 0.0 0.00 0.00 0.00 61 1009.1
20260510013036 72 26 0.0 0.0 0.00 0.00 0.00 63 1009.0
20260510011531 73 26 0.0 0.0 0.00 0.00 0.00 65 1008.9
20260510010028 74 26 0.0 0.0 0.00 0.00 0.00 67 1008.6
20260510004521 75 26 0.0 0.0 0.00 0.00 0.00 68 1008.5
20260510003019 76 26 0.0 0.0 0.00 0.00 0.00 69 1008.3
20260510001514 76 26 0.0 0.0 0.00 0.00 0.00 68 1008.2
20260510000017 77 26 0.0 0.0 0.00 0.00 0.00 68 1008.1
20260509234507 77 26 0.0 0.0 0.00 0.00 0.00 68 1007.9
20260509233007 78 26 0.0 0.0 0.00 0.00 0.00 68 1007.8
20260509231600 79 26 0.0 0.0 0.00 0.00 0.00 67 1007.7
20260509230056 80 26 0.0 0.0 0.00 0.00 0.00 63 1007.6
20260509224551 81 26 0.0 0.0 0.00 0.00 0.00 60 1007.6
20260509223056 82 26 0.0 0.0 0.00 0.00 0.00 60 1007.6
20260509221544 81 31 0.0 0.0 0.00 0.00 0.00 61 1007.5
20260509220041 82 359 0.0 0.0 0.00 0.00 0.00 60 1007.4
20260509214536 83 314 0.0 0.0 0.00 0.00 0.00 57 1007.3
20260509213033 83 343 0.0 0.0 0.00 0.00 0.00 57 1007.4
20260509211527 84 8 0.0 0.0 0.00 0.00 0.00 54 1007.6
20260509210023 83 17 0.0 0.0 0.00 0.00 0.00 54 1007.6
20260509204520 83 17 0.0 0.0 0.00 0.00 0.00 53 1007.8
20260509203019 84 41 0.0 0.0 0.00 0.00 0.00 51 1007.8
20260509201513 85 318 0.0 0.0 0.00 0.00 0.00 45 1008.1
20260509200009 85 315 0.0 0.0 0.00 0.00 0.00 49 1008.4
20260509194505 84 317 0.0 0.0 0.00 0.00 0.00 52 1008.5
20260509193001 82 287 0.0 0.0 0.00 0.00 0.00 51 1008.5
20260509184601 82 299 0.0 0.0 0.00 0.00 0.00 55 1008.7
20260509183052 79 323 0.0 0.0 0.00 0.00 0.00 57 1009.0
20260509174541 78 340 0.0 0.0 0.00 0.00 0.00 61 1009.2
20260509170027 80 191 0.0 0.0 0.00 0.00 0.00 60 1009.4
20260509164522 78 198 0.0 0.0 0.00 0.00 0.00 61 1009.4
20260509163019 78 50 0.0 0.0 0.00 0.00 0.00 62 1009.3
20260509161514 77 303 0.0 0.0 0.00 0.00 0.00 66 1009.3
20260509150007 69 348 0.0 0.0 0.00 0.00 0.00 54 1009.7
20260509144502 67 359 0.0 0.0 0.00 0.00 0.00 43 1009.8
20260509143100 66 359 0.0 0.0 0.00 0.00 0.00 36 1009.8
20260509141555 64 4 0.0 0.0 0.00 0.00 0.00 23 1010.0
20260509140051 63 4 0.0 0.0 0.00 0.00 0.00 3 1010.1
20260509133049 60 4 0.0 0.0 0.00 0.00 0.00 1 1010.3
20260509131538 59 4 0.0 0.0 0.00 0.00 0.00 1 1010.1
20260509123028 57 4 0.0 0.0 0.00 0.00 0.00 4 1009.7
20260509121527 56 4 0.0 0.0 0.00 0.00 0.00 5 1009.6
20260509120020 56 4 0.0 0.0 0.00 0.00 0.00 7 1009.4
20260509114515 56 4 0.0 0.0 0.00 0.00 0.00 8 1009.2
20260509113014 56 4 0.0 0.0 0.00 0.00 0.00 8 1009.2
20260509111511 56 4 0.0 0.0 0.00 0.00 0.00 9 1008.8
20260509110004 56 4 0.0 0.0 0.00 0.00 0.00 9 1008.6
20260509104503 56 4 0.0 0.0 0.00 0.00 0.00 9 1008.1
20260509101552 57 4 0.0 0.0 0.00 0.00 0.00 9 1007.9
20260509100054 57 4 0.0 0.0 0.00 0.00 0.00 9 1008.0
20260509094545 57 4 0.0 0.0 0.00 0.00 0.00 8 1007.8
20260509091536 58 4 0.0 0.0 0.00 0.00 0.00 8 1008.0
20260509090032 58 4 0.0 0.0 0.00 0.00 0.00 8 1008.1
20260509084531 58 4 0.0 0.0 0.00 0.00 0.00 8 1008.0
20260509081530 59 4 0.0 0.0 0.00 0.00 0.00 8 1008.0
20260509080019 59 4 0.0 0.0 0.00 0.00 0.00 9 1008.3
20260509074518 59 4 0.0 0.0 0.00 0.00 0.00 10 1008.4
20260509071519 59 4 0.0 0.0 0.00 0.00 0.00 12 1008.5
20260509061507 59 4 0.0 0.0 0.00 0.00 0.00 19 1008.6
20260509060004 60 4 0.0 0.0 0.00 0.00 0.00 21 1008.8
20260509054502 60 4 0.0 0.0 0.00 0.00 0.00 23 1009.1
20260509051505 60 4 0.0 0.0 0.00 0.00 0.00 29 1009.6
20260509050004 60 4 0.0 0.0 0.00 0.00 0.00 33 1009.6
20260509044559 60 4 0.0 0.0 0.00 0.00 0.00 36 1009.9
20260509041544 61 4 0.0 0.0 0.00 0.00 0.00 36 1010.6